Location: Le Hiès Ruisseau
(43.3000°N, 0.4500°W)
Time: 12:03:27
(UTC+00:00)

Cosmos 1553 Rocket - Pass Details

Date: 28 January 2023
Orbit: 942 x 1007 km, 82.9° (Epoch: 19 March)

Event Time Altitude Azimuth Distance (km) Brightness Sun altitude
Rises 18:52:05 0° 165° (SSE) 3,592 6.9 -19.0°
Reaches altitude 10° 18:54:40 10° 159° (SSE) 2,652 6.1 -19.5°
Maximum altitude 19:00:20 43° 90° (E) 1,295 4.2 -20.5°
Drops below altitude 10° 19:06:03 10° 20° (NNE) 2,686 6.1 -21.5°
Sets 19:08:40 0° 14° (NNE) 3,644 6.8 -22.0°
